Location: Fernhill
(41.0167°S, 175.6333°E)
Time: 14:45:08
(UTC+00:00)

Meteor 2-6 Rocket - Pass Details

Date: 19 February 2026
Orbit: 804 x 913 km, 81.3° (Epoch: 7 March)

Event Time Altitude Azimuth Distance (km) Brightness Sun altitude
Exits shadow 09:09:35 23° 102° (ESE) 1,806 5.5 -20.1°
Drops below altitude 10° 09:13:35 10° 144° (SE) 2,598 6.7 -20.7°
Sets 09:16:33 0° 157° (SSE) 3,561 7.6 -21.2°
